General Edward Lawrence Logan International Airport Boston US
ICAO: KBOS
IATA: BOS
Category: Large
Scheduled Services: Yes

Elevation: 20 ft
TransAlt. 18000 ft.

Airport Communications:
BOSTON APP:118.25
ATIS:135
CLNC DEL:121.65
BOSTON DEP:133
GND:121.9
GATE:134.05
BRIDGEPORT RDO:122.4
BOSTON TWR:124.725
UNICOM:122.95

KBOS Zoom In..

If Map Doesn't Load, Click Here

Runways:

(A) RW 04L length 7861 ft width 150 ft
---- / hdg 36

(B) RW 04R length 10005 ft width 150 ft
ILS 110.30 / hdg 36

(C) RW 09 length 7000 ft width 150 ft
---- / hdg 93

(D) RW 14 length 5000 ft width 100 ft
---- / hdg 141

(E) RW 15L length 2557 ft width 100 ft
---- / hdg 151

(F) RW 15R length 10083 ft width 150 ft
ILS 110.70 / hdg 151

(G) RW 22L length 10005 ft width 150 ft
ILS 110.30 / hdg 216

(H) RW 22R length 7861 ft width 150 ft
---- / hdg 216

(I) RW 27 length 7000 ft width 150 ft
ILS 111.30 / hdg 273

(J) RW 32 length 5000 ft width 100 ft
---- / hdg 321

(K) RW 33L length 10083 ft width 150 ft
ILS 110.70 / hdg 331

(L) RW 33R length 2557 ft width 100 ft
---- / hdg 331

Location; KBOS
Day. 21 / Time. 13.54 Zulu
* Altimeter: 30.29
* Temperature: 19° c. 66.2°f.
* Wind from: 160° Speed 10 kn.
Dewpoint: 12° c.
Visibility: 10 Statute Miles.
Clouds: Few 3000 ft.
Clouds: Scattered 9000 ft.
Clouds: Scattered 16000 ft.

KBOS 211354Z 16010KT 10SM FEW030 SCT090 SCT160 19/12 A3029 RMK AO2 SLP256 T01890117


Wind From 160°
Speed 10 kn.

 
 
jpsmedia.com for Web Design worldairports.se 2018   terms of use